Starlink 31126

operational
NORAD ID: 58675 Int'l Des: 2023-211 Owner: SPXS Country: US Constellation: starlink
LEOCIRCULAR

Starlink 31126について

説明を読み込み中...

リアルタイム位置

3D地球を読み込み中...

次回通過

高度履歴

Altitude vs Time

uPlot chart will show altitude changes over time

軌道要素

1 58675U 23211J 25261.22485256 -.00000288 00000-0 -92162-6 0 9996
2 58675 43.0064 338.8067 0002136 280.1981 79.8629 15.27571569 96099
Epoch: Sep 18, 2025 • Age: 19 hours

現在のステータス

高度 489.3 km
速度 7.62 km/s
衛星直下点 -28.59°S, 59.79°W
打ち上げ日 Dec 29, 2023
運用期間 1.7 years
タイプ internet

技術仕様

分類 Payload
質量 730.00 kg
乾燥質量 700.00 kg
総質量 730.00 kg
長さ 0.30 m
直径 4.10 m
スパン 29.00 m
形状 Box + pan
製造者 SPXS
バスタイプ Starlink V2M
フェーズステータス In Orbit
所有者/国 SPXS/US

大規模コンステレーション

Loading constellations...